CAPE
1 0 0 0 0 0 0 0 0 0 0 0 0 0 0 0 0 6 24 21 70 485 725 1054 1203 1366 645 739 786 658 1030 119 66 54 29 19 21 22 8 65 159 143 72 3 0
2 2 0 0 0 0 0 0 0 0 0 0 0 0 0 1 2 27 69 271 399 633 1347 1225 1067 861 1188 658 444 1015 164 116 67 37 21 17 6 0 59 93 85 134 122 5 13
0 0 1 0 0 0 0 0 0 0 0 0 0 0 0 0 6 51 558 686 462 736 891 826 708 972 471 382 273 323 169 56 68 29 15 3 0 2 24 36 39 338 145 82 294
2 2 3 2 1 1 0 0 0 0 0 0 0 0 0 0 2 65 832 415 711 1333 902 879 892 669 216 209 473 232 139 82 27 33 24 9 3 8 29 9 2 194 187 216 251
2 2 3 1 2 0 0 0 0 0 0 0 0 0 0 0 28 137 1480 497 323 975 1060 844 921 423 289 302 641 285 100 124 112 100 16 4 5 1 33 0 16 65 76 119 123
0 1 1 1 1 0 0 0 0 0 0 0 0 0 0 0 2 127 780 513 937 1100 339 386 474 534 376 508 432 115 155 226 194 191 153 31 42 0 1 1 0 7 35 67 83
0 0 0 0 0 0 0 0 0 0 0 0 0 0 0 0 4 27 240 696 762 633 37 1 193 186 750 692 572 140 264 361 354 251 103 52 56 0 4 1 1 11 23 39 49
0 0 0 0 0 0 0 0 0 0 0 0 0 0 0 0 0 70 67 100 240 127 33 20 2 341 1024 883 682 169 393 540 545 363 160 144 237 0 8 6 11 17 17 38 126
0 0 0 0 0 0 0 0 0 0 0 0 0 0 0 0 94 56 0 9 0 0 29 35 151 98 1010 959 931 984 725 304 560 342 218 307 280 0 3 23 32 33 26 33 137
0 0 0 0 0 0 0 0 0 0 0 0 0 0 0 0 11 228 77 0 0 0 55 75 22 33 150 621 238 308 560 378 401 384 199 276 207 19 9 90 71 62 79 96 152
0 0 0 0 0 0 0 0 0 0 0 0 0 0 0 0 0 227 159 50 46 14 0 9 7 60 237 282 373 118 117 257 539 320 312 391 350 146 2 60 60 72 65 100 146
0 0 0 0 0 0 0 0 0 0 0 0 0 0 0 0 0 51 225 135 119 46 0 0 11 12 4 17 0 23 174 107 293 523 542 624 621 506 110 10 23 63 194 112 101
0 0 0 0 0 0 0 0 0 0 0 0 0 0 0 0 0 0 1 155 81 14 0 14 4 0 0 0 0 2 17 48 59 441 730 119 752 729 582 228 6 21 105 170 137
0 0 0 0 0 0 0 0 0 0 0 0 0 0 0 0 0 0 0 25 20 0 26 101 10 0 0 0 0 49 6 4 307 402 382 759 273 96 771 914 505 22 49 86 308
0 0 0 0 0 0 0 0 0 0 0 0 0 0 0 0 0 0 0 0 0 0 0 13 114 0 0 0 0 2 0 0 67 237 279 62 219 247 478 941 861 697 79 36 60
0 0 0 0 0 0 0 0 0 0 0 0 0 0 0 0 0 0 0 0 0 0 0 0 0 3 0 0 0 0 0 0 50 58 229 79 123 366 521 613 697 839 680 175 49
0 0 0 0 0 0 0 0 0 0 0 0 0 0 0 0 0 0 0 0 0 0 0 0 0 1 7 0 4 0 2 14 22 19 15 39 17 371 741 1031 745 674 970 737 427
0 0 0 0 0 0 0 0 0 0 0 0 0 0 0 0 0 0 0 0 0 0 0 0 1 0 2 124 1 122 0 27 71 97 70 4 18 681 930 909 825 945 863 1073 560
0 0 0 0 0 0 0 0 0 0 0 0 0 0 0 0 0 0 0 0 0 0 0 0 0 0 0 0 0 0 0 6 17 8 15 44 232 639 781 1015 1188 1097 1280 1071 843
0 0 0 0 0 0 0 0 0 0 0 0 0 0 0 0 0 0 0 0 0 0 0 0 0 0 0 0 0 0 1 1 0 3 4 16 21 545 776 1058 1463 1543 1925 1683 1038
0 0 0 0 0 0 0 0 0 0 0 0 0 0 0 0 0 0 0 0 0 0 0 0 0 1 0 0 0 0 0 0 2 5 4 1 256 718 732 1153 1389 1188 1164 1219 1159
0 0 0 0 0 0 0 0 0 0 0 0 0 0 0 0 0 0 0 0 0 0 0 0 0 0 0 0 0 0 0 0 11 0 0 0 99 359 747 1532 944 837 935 1081 1220
0 0 0 0 0 0 0 0 0 0 0 0 0 0 0 0 0 0 0 0 0 0 0 0 0 0 41 4 0 0 0 0 0 0 5 17 287 493 1203 1068 662 479 881 969 831
0 0 0 0 0 0 0 0 0 0 0 0 0 0 0 0 0 0 0 0 0 0 0 0 0 2 89 95 40 0 0 0 0 2 8 7 378 601 1037 350 38 547 662 944 801
0 0 0 1 0 0 0 0 0 0 0 0 0 0 0 0 0 0 1 63 0 0 0 0 0 64 73 35 10 34 28 9 2 1 5 10 57 484 1088 476 73 457 650 762 905
1 0 0 0 0 0 0 0 1 0 0 0 0 0 5 0 0 22 20 200 92 96 56 17 125 161 112 5 0 0 0 0 0 0 0 0 0 576 929 611 198 82 424 298 237
0 0 0 4 0 0 28 2 0 2 3 0 0 25 39 76 4 111 104 227 243 195 162 152 125 247 192 81 52 34 61 30 20 13 5 15 248 492 815 621 267 9 78 95 190
CIN
-0 -0 -0 -0 -0 -0 -0 -0 -0 -0 -0 -0 -0 -0 -0 -0 -8 -45 -29 -74 -130 -128 -125 -66 -74 -81 -83 -26 -28 -25 -24 -1 -0 -0 -0 -0 -47 -48 -46 -27 -1 -5 -76 -27 -0
-0 -0 -0 -0 -0 -0 -0 -0 -0 -0 -0 -0 -0 -0 -0 -40 -10 -21 -57 -348 -333 -290 -64 -27 -39 -80 -3 -9 -3 -22 -1 -0 -0 -0 -0 -0 -0 -0 -12 -6 -10 -7 -12 -48 -112
-0 -0 -0 -0 -0 -0 -0 -0 -0 -0 -0 -0 -0 -0 -0 -0 -48 -18 -353 -305 -297 -222 -10 -30 -35 -37 -0 -7 -15 -7 -1 -0 -0 -0 -0 -0 -0 -0 -1 -1 -4 -1 -31 -33 -12
-0 -0 -0 -0 -0 -0 -0 -0 -0 -0 -0 -0 -0 -0 -0 -0 -15 -36 -324 -327 -277 -40 -3 -26 -13 -2 -0 -1 -12 -6 -0 -0 -0 -0 -0 -0 -0 -0 -0 -0 -0 -10 -9 -10 -1
-0 -0 -0 -0 -0 -0 -0 -0 -0 -0 -0 -0 -0 -0 -0 -0 -67 -247 -255 -214 -121 -53 -0 -0 -0 -0 -0 -3 -3 -6 -1 -2 -3 -3 -0 -0 -0 -0 -21 -0 -67 -55 -19 -0 -12
-0 -0 -0 -0 -0 -0 -0 -0 -0 -0 -0 -0 -0 -0 -0 -0 -74 -141 -70 -100 -11 -14 -10 -4 -0 -11 -0 -1 -12 -11 -1 -0 -0 -0 -0 -7 -16 -0 -0 -0 -0 -32 -45 -30 -17
-0 -0 -0 -0 -0 -0 -0 -0 -0 -0 -0 -0 -0 -0 -0 -0 -66 -130 -69 -25 -54 -49 -51 -8 -54 -5 -0 -14 -1 -2 -0 -0 -0 -0 -1 -11 -11 -0 -0 -0 -0 -3 -43 -49 -36
-0 -0 -0 -0 -0 -0 -0 -0 -0 -0 -0 -0 -0 -0 -0 -0 -0 -119 -118 -94 -104 -121 -175 -134 -186 -25 -0 -0 -0 -9 -2 -3 -0 -0 -3 -3 -0 -0 -0 -0 -0 -0 -0 -17 -40
-0 -0 -0 -0 -0 -0 -0 -0 -0 -0 -0 -0 -0 -0 -0 -0 -108 -147 -0 -53 -0 -0 -167 -153 -70 -53 -2 -0 -0 -16 -19 -75 -0 -0 -3 -4 -1 -0 -0 -0 -0 -0 -0 -0 -6
-0 -0 -0 -0 -0 -0 -0 -0 -0 -0 -0 -0 -0 -0 -0 -33 -92 -52 -127 -0 -25 -0 -46 -69 -68 -76 -27 -1 -86 -14 -11 -3 -1 -0 -1 -0 -0 -99 -119 -52 -66 -52 -45 -37 -11
-0 -0 -0 -0 -0 -0 -0 -0 -0 -0 -0 -0 -0 -0 -0 -0 -0 -80 -80 -105 -80 -90 -0 -74 -61 -13 -19 -9 -7 -5 -28 -9 -20 -0 -0 -2 -0 -24 -152 -54 -51 -62 -82 -70 -25
-0 -0 -0 -0 -0 -0 -0 -0 -0 -0 -0 -0 -0 -0 -0 -0 -0 -117 -66 -58 -64 -64 -0 -0 -6 -35 -67 -50 -0 -48 -9 -20 -0 -5 -8 -0 -0 -0 -20 -0 -87 -51 -2 -41 -64
-0 -0 -0 -0 -0 -0 -0 -0 -0 -0 -0 -0 -0 -0 -0 -0 -0 -0 -110 -76 -80 -105 -0 -6 -1 -1 -0 -0 -0 -0 -2 -61 -65 -1 -52 -33 -2 -0 -0 -4 -48 -89 -16 -13 -23
-0 -0 -0 -0 -0 -0 -0 -0 -0 -0 -0 -0 -0 -0 -0 -0 -0 -0 -0 -178 -103 -0 -90 -37 -1 -0 -0 -0 -0 -0 -0 -0 -17 -0 -9 -11 -6 -13 -0 -0 -0 -63 -27 -9 -0
-0 -0 -0 -0 -0 -0 -0 -0 -0 -0 -0 -0 -0 -0 -0 -0 -0 -0 -0 -0 -0 -0 -0 -89 -35 -0 -0 -0 -0 -0 -0 -0 -28 -20 -22 -29 -0 -179 -31 -0 -0 -0 -17 -22 -8
-0 -0 -0 -0 -0 -0 -0 -0 -0 -0 -0 -0 -0 -0 -0 -0 -0 -0 -0 -0 -0 -0 -0 -1 -0 -61 -0 -0 -0 -0 -0 -0 -11 -36 -12 -17 -2 -0 -0 -0 -0 -0 -0 -5 -14
-0 -0 -0 -0 -0 -0 -0 -0 -0 -0 -0 -0 -0 -0 -0 -0 -0 -0 -0 -0 -0 -0 -0 -0 -0 -8 -61 -0 -26 -0 -0 -0 -0 -0 -0 -0 -0 -1 -0 -19 -5 -0 -0 -6 -20
-0 -0 -0 -0 -0 -0 -0 -0 -0 -0 -0 -0 -0 -0 -0 -0 -0 -0 -0 -0 -0 -0 -0 -0 -0 -0 -4 -21 -0 -4 -0 -0 -0 -0 -0 -1 -0 -8 -42 -95 -61 -41 -16 -0 -1
-0 -0 -0 -0 -0 -0 -0 -0 -0 -0 -0 -0 -0 -0 -0 -0 -0 -0 -0 -0 -0 -0 -0 -0 -0 -0 -0 -0 -0 -0 -0 -0 -0 -0 -1 -0 -36 -58 -60 -51 -45 -10 -2 -0 -2
-0 -0 -0 -0 -0 -0 -0 -0 -0 -0 -0 -0 -0 -0 -0 -0 -0 -0 -0 -0 -0 -0 -0 -0 -0 -0 -0 -0 -0 -0 -1 -0 -0 -0 -0 -0 -0 -1 -22 -21 -22 -0 -5 -23 -84
-0 -0 -0 -0 -0 -0 -0 -0 -0 -0 -0 -0 -0 -0 -0 -0 -0 -0 -0 -0 -0 -0 -0 -0 -0 -0 -0 -0 -0 -0 -0 -0 -0 -0 -0 -0 -7 -20 -12 -4 -42 -42 -41 -45 -38
-0 -0 -0 -0 -0 -0 -0 -0 -0 -0 -0 -0 -0 -0 -0 -0 -0 -0 -0 -0 -0 -0 -0 -0 -0 -0 -0 -0 -0 -0 -0 -0 -0 -0 -0 -0 -8 -62 -32 -0 -109 -75 -14 -9 -8
-0 -0 -0 -0 -0 -0 -0 -0 -0 -0 -0 -0 -0 -0 -0 -0 -0 -0 -0 -0 -0 -0 -0 -0 -0 -0 -0 -0 -0 -0 -0 -0 -0 -0 -0 -0 -10 -66 -13 -38 -72 -117 -28 -0 -0
-0 -0 -0 -0 -0 -0 -0 -0 -0 -0 -0 -0 -0 -0 -0 -0 -0 -0 -0 -5 -0 -0 -0 -0 -0 -0 -0 -5 -0 -0 -0 -0 -0 -0 -0 -0 -17 -45 -3 -140 -257 -66 -48 -11 -10
-0 -0 -0 -0 -0 -0 -0 -0 -0 -0 -0 -0 -0 -0 -0 -0 -0 -0 -0 -0 -0 -0 -0 -0 -0 -0 -2 -29 -14 -2 -2 -0 -0 -0 -0 -0 -0 -11 -0 -59 -230 -100 -40 -19 -1
-0 -0 -0 -0 -0 -0 -0 -0 -0 -0 -0 -0 -0 -0 -0 -0 -0 -0 -0 -0 -9 -37 -11 -10 -0 -0 -0 -12 -0 -0 -0 -0 -0 -0 -0 -0 -0 -2 -0 -14 -92 -99 -24 -26 -32
-0 -0 -0 -2 -0 -0 -1 -0 -0 -0 -0 -0 -10 -23 -6 -0 -3 -0 -2 -0 -0 -16 -7 -1 -7 -0 -1 -1 -5 -3 -0 -0 -4 -11 -17 -5 -0 -5 -0 -1 -11 -66 -25 -29 -23
Wind_Speed
nan nan nan nan nan nan nan nan nan nan nan nan nan nan nan nan nan nan nan nan nan 7 11 8 10 16 22 23 30 20 21 14 nan nan nan nan nan nan nan nan 5 11 nan nan nan
nan nan nan nan nan nan nan nan nan nan nan nan nan nan nan nan nan nan nan 16 12 2 7 9 10 13 18 19 18 28 7 13 nan nan nan nan nan nan nan nan nan 13 18 nan nan
nan nan nan nan nan nan nan nan nan nan nan nan nan nan nan nan nan nan 15 1 3 7 10 13 8 16 19 21 3 25 10 nan nan nan nan nan nan nan nan nan nan 9 11 nan 12
nan nan nan nan nan nan nan nan nan nan nan nan nan nan nan nan nan nan 13 11 12 19 16 14 14 18 19 20 25 9 4 nan nan nan nan nan nan nan nan nan nan 11 13 11 10
nan nan nan nan nan nan nan nan nan nan nan nan nan nan nan nan nan 9 5 12 14 23 18 19 19 23 11 11 13 5 6 6 7 4 nan nan nan nan nan nan nan nan nan 12 9
nan nan nan nan nan nan nan nan nan nan nan nan nan nan nan nan nan 8 10 6 14 16 9 19 22 6 6 10 1 6 7 12 3 9 5 nan nan nan nan nan nan nan nan nan nan
nan nan nan nan nan nan nan nan nan nan nan nan nan nan nan nan nan nan 8 9 10 16 nan nan 21 25 5 12 4 14 11 10 8 4 4 nan nan nan nan nan nan nan nan nan nan
nan nan nan nan nan nan nan nan nan nan nan nan nan nan nan nan nan nan nan 10 8 14 nan nan nan 16 17 3 8 5 7 6 16 7 3 11 12 nan nan nan nan nan nan nan 8
nan nan nan nan nan nan nan nan nan nan nan nan nan nan nan nan nan nan nan nan nan nan nan nan 6 nan 8 16 11 15 5 18 15 6 5 10 13 nan nan nan nan nan nan nan 9
nan nan nan nan nan nan nan nan nan nan nan nan nan nan nan nan nan 4 nan nan nan nan nan nan nan nan 5 10 18 14 12 13 19 12 11 6 20 nan nan nan nan nan nan nan 11
nan nan nan nan nan nan nan nan nan nan nan nan nan nan nan nan nan 1 3 nan nan nan nan nan nan nan 9 10 11 11 16 7 19 17 14 16 19 16 nan nan nan nan nan 9 11
nan nan nan nan nan nan nan nan nan nan nan nan nan nan nan nan nan nan 8 3 4 nan nan nan nan nan nan nan nan nan 5 10 18 13 3 19 21 17 11 nan nan nan 13 11 13
nan nan nan nan nan nan nan nan nan nan nan nan nan nan nan nan nan nan nan 5 nan nan nan nan nan nan nan nan nan nan nan nan nan 8 42 33 15 21 15 13 nan nan 12 11 13
nan nan nan nan nan nan nan nan nan nan nan nan nan nan nan nan nan nan nan nan nan nan nan 16 nan nan nan nan nan nan nan nan 20 10 16 2 20 nan 19 19 18 nan nan nan 16
nan nan nan nan nan nan nan nan nan nan nan nan nan nan nan nan nan nan nan nan nan nan nan nan 11 nan nan nan nan nan nan nan nan 20 12 nan 8 29 18 25 24 19 nan nan nan
nan nan nan nan nan nan nan nan nan nan nan nan nan nan nan nan nan nan nan nan nan nan nan nan nan nan nan nan nan nan nan nan nan nan 6 nan 6 22 28 25 31 21 25 16 nan
nan nan nan nan nan nan nan nan nan nan nan nan nan nan nan nan nan nan nan nan nan nan nan nan nan nan nan nan nan nan nan nan nan nan nan nan nan 42 41 30 31 25 37 24 20
nan nan nan nan nan nan nan nan nan nan nan nan nan nan nan nan nan nan nan nan nan nan nan nan nan nan nan 13 nan 12 nan nan nan nan nan nan nan 46 48 43 27 17 18 43 30
nan nan nan nan nan nan nan nan nan nan nan nan nan nan nan nan nan nan nan nan nan nan nan nan nan nan nan nan nan nan nan nan nan nan nan nan 34 41 42 40 29 30 27 22 48
nan nan nan nan nan nan nan nan nan nan nan nan nan nan nan nan nan nan nan nan nan nan nan nan nan nan nan nan nan nan nan nan nan nan nan nan nan 38 43 31 38 37 53 56 59
nan nan nan nan nan nan nan nan nan nan nan nan nan nan nan nan nan nan nan nan nan nan nan nan nan nan nan nan nan nan nan nan nan nan nan nan 29 45 51 52 37 43 44 48 54
nan nan nan nan nan nan nan nan nan nan nan nan nan nan nan nan nan nan nan nan nan nan nan nan nan nan nan nan nan nan nan nan nan nan nan nan nan 41 46 61 52 43 45 47 46
nan nan nan nan nan nan nan nan nan nan nan nan nan nan nan nan nan nan nan nan nan nan nan nan nan nan nan nan nan nan nan nan nan nan nan nan 33 33 54 53 52 49 46 43 44
nan nan nan nan nan nan nan nan nan nan nan nan nan nan nan nan nan nan nan nan nan nan nan nan nan nan nan nan nan nan nan nan nan nan nan nan 45 40 59 53 nan 42 42 41 40
nan nan nan nan nan nan nan nan nan nan nan nan nan nan nan nan nan nan nan nan nan nan nan nan nan nan nan nan nan nan nan nan nan nan nan nan nan 45 59 51 nan 42 40 39 38
nan nan nan nan nan nan nan nan nan nan nan nan nan nan nan nan nan nan nan 19 nan nan nan nan 11 15 21 nan nan nan nan nan nan nan nan nan nan 50 66 58 52 nan 45 43 41
nan nan nan nan nan nan nan nan nan nan nan nan nan nan nan nan nan 18 28 23 24 21 16 12 10 12 6 nan nan nan nan nan nan nan nan nan 35 52 54 55 52 nan nan nan 46
Wind_Direction
nan nan nan nan nan nan nan nan nan nan nan nan nan nan nan nan nan nan nan nan nan 1 78 48 72 92 89 95 102 93 101 175 nan nan nan nan nan nan nan nan 170 186 nan nan nan
nan nan nan nan nan nan nan nan nan nan nan nan nan nan nan nan nan nan nan 218 264 251 80 72 86 99 93 103 98 109 190 202 nan nan nan nan nan nan nan nan nan 271 277 nan nan
nan nan nan nan nan nan nan nan nan nan nan nan nan nan nan nan nan nan 55 114 60 104 118 117 92 105 108 96 172 112 197 nan nan nan nan nan nan nan nan nan nan 300 311 nan 326
nan nan nan nan nan nan nan nan nan nan nan nan nan nan nan nan nan nan 70 63 83 96 108 109 85 111 112 103 175 135 134 nan nan nan nan nan nan nan nan nan nan 313 321 326 333
nan nan nan nan nan nan nan nan nan nan nan nan nan nan nan nan nan 17 50 69 72 82 89 110 85 106 107 135 24 112 243 265 229 241 nan nan nan nan nan nan nan nan nan 338 354
nan nan nan nan nan nan nan nan nan nan nan nan nan nan nan nan nan 344 4 58 108 107 120 108 127 113 88 130 146 150 264 284 342 262 282 nan nan nan nan nan nan nan nan nan nan
nan nan nan nan nan nan nan nan nan nan nan nan nan nan nan nan nan nan 62 97 123 120 nan nan 122 101 76 7 63 354 337 329 313 330 287 nan nan nan nan nan nan nan nan nan nan
nan nan nan nan nan nan nan nan nan nan nan nan nan nan nan nan nan nan nan 129 131 123 nan nan nan 127 130 351 34 19 12 344 316 342 327 227 268 nan nan nan nan nan nan nan 301
nan nan nan nan nan nan nan nan nan nan nan nan nan nan nan nan nan nan nan nan nan nan nan nan 153 nan 98 64 59 251 266 21 304 341 296 285 285 nan nan nan nan nan nan nan 289
nan nan nan nan nan nan nan nan nan nan nan nan nan nan nan nan nan 322 nan nan nan nan nan nan nan nan 153 205 162 140 32 311 321 324 327 329 274 nan nan nan nan nan nan nan 287
nan nan nan nan nan nan nan nan nan nan nan nan nan nan nan nan nan 204 276 nan nan nan nan nan nan nan 25 196 6 163 20 226 320 309 355 286 292 311 nan nan nan nan nan 301 296
nan nan nan nan nan nan nan nan nan nan nan nan nan nan nan nan nan nan 292 204 238 nan nan nan nan nan nan nan nan nan 213 260 264 313 267 296 299 297 309 nan nan nan 326 321 299
nan nan nan nan nan nan nan nan nan nan nan nan nan nan nan nan nan nan nan 313 nan nan nan nan nan nan nan nan nan nan nan nan nan 283 262 145 291 298 303 294 nan nan 315 330 323
nan nan nan nan nan nan nan nan nan nan nan nan nan nan nan nan nan nan nan nan nan nan nan 187 nan nan nan nan nan nan nan nan 289 28 226 294 253 nan 277 293 290 nan nan nan 316
nan nan nan nan nan nan nan nan nan nan nan nan nan nan nan nan nan nan nan nan nan nan nan nan 235 nan nan nan nan nan nan nan nan 287 313 nan 5 295 61 300 293 299 nan nan nan
nan nan nan nan nan nan nan nan nan nan nan nan nan nan nan nan nan nan nan nan nan nan nan nan nan nan nan nan nan nan nan nan nan nan 291 nan 140 310 290 309 298 294 292 296 nan
nan nan nan nan nan nan nan nan nan nan nan nan nan nan nan nan nan nan nan nan nan nan nan nan nan nan nan nan nan nan nan nan nan nan nan nan nan 260 261 254 266 278 301 296 293
nan nan nan nan nan nan nan nan nan nan nan nan nan nan nan nan nan nan nan nan nan nan nan nan nan nan nan 249 nan 235 nan nan nan nan nan nan nan 267 264 259 262 264 257 299 301
nan nan nan nan nan nan nan nan nan nan nan nan nan nan nan nan nan nan nan nan nan nan nan nan nan nan nan nan nan nan nan nan nan nan nan nan 276 281 286 265 255 259 268 266 287
nan nan nan nan nan nan nan nan nan nan nan nan nan nan nan nan nan nan nan nan nan nan nan nan nan nan nan nan nan nan nan nan nan nan nan nan nan 283 291 279 254 241 247 249 253
nan nan nan nan nan nan nan nan nan nan nan nan nan nan nan nan nan nan nan nan nan nan nan nan nan nan nan nan nan nan nan nan nan nan nan nan 251 249 274 280 280 262 252 248 254
nan nan nan nan nan nan nan nan nan nan nan nan nan nan nan nan nan nan nan nan nan nan nan nan nan nan nan nan nan nan nan nan nan nan nan nan nan 258 268 276 277 271 265 254 249
nan nan nan nan nan nan nan nan nan nan nan nan nan nan nan nan nan nan nan nan nan nan nan nan nan nan nan nan nan nan nan nan nan nan nan nan 265 275 264 269 275 278 271 270 267
nan nan nan nan nan nan nan nan nan nan nan nan nan nan nan nan nan nan nan nan nan nan nan nan nan nan nan nan nan nan nan nan nan nan nan nan 278 278 276 272 nan 275 274 273 271
nan nan nan nan nan nan nan nan nan nan nan nan nan nan nan nan nan nan nan nan nan nan nan nan nan nan nan nan nan nan nan nan nan nan nan nan nan 298 277 275 nan 283 283 280 274
nan nan nan nan nan nan nan nan nan nan nan nan nan nan nan nan nan nan nan 237 nan nan nan nan 170 213 224 nan nan nan nan nan nan nan nan nan nan 267 272 281 286 nan 283 280 275
nan nan nan nan nan nan nan nan nan nan nan nan nan nan nan nan nan 181 193 205 204 212 183 171 191 240 203 nan nan nan nan nan nan nan nan nan 230 271 278 286 285 nan nan nan 274